Galesburg, IL

3:52 AM CDT on April 25, 2018 (GMT -0500)
Galesburg Municipal

Weather History for KGBG - September, 2011

Change the Weather History Date:

Friday, September 30, 2011

  Actual Average Record
Temperature  
Mean Temperature 56 °F -  
Max Temperature 68 °F 72 °F 90 °F (1952)
Min Temperature 44 °F 49 °F 31 °F (1984)
Degree Days  
Heating Degree Days 9    
Growing Degree Days 6 (Base 50)    
Moisture  
Dew Point 36 °F    
Average Humidity 46    
Maximum Humidity 71    
Minimum Humidity 28    
Precipitation  
Precipitation 0.00 in - - ()
Sea Level Pressure  
Sea Level Pressure 30.07 in    
Wind  
Wind Speed 14 mph (NW)    
Max Wind Speed 21 mph    
Max Gust Speed 31 mph    
Visibility 10 miles    
Events      
Averages and records for this station are not official NWS values.
T = Trace of Precipitation, MM = Missing Value Source: NWS Daily Summary

Daily Weather History Graph

Daily Weather History Graph

Search for Another Location

Airport or City:

Astronomy

Sep. 30, 2011 Rise Set
Actual Time 6:57 AM CDT 6:45 PM CDT
Civil Twilight 6:29 AM CDT 7:13 PM CDT
Nautical Twilight 5:57 AM CDT 7:44 PM CDT
Astronomical Twilight 5:25 AM CDT 8:17 PM CDT
Moon 10:57 AM CDT (9/30) 8:45 PM CDT (9/30)
Length of Visible Light 12h 43m
Length of Day
11h 48m
Waxing Crescent, 15% of the Moon is Illuminated
Sep 30
Waxing Crescent
Oct 3
First Quarter
Oct 11
Full
Oct 19
Last Quarter
Oct 26
New

Hourly Weather History & Observations

Time (CDT) Temp. Windchill Dew Point Humidity Pressure Visibility Wind Dir Wind Speed Gust Speed Precip Events Conditions
12:15 AM 60.8 °F - 35.6 °F 39% 29.92 in 10.0 mi NW 17.3 mph 31.1 mph N/A   Clear
12:35 AM 59.0 °F - 35.6 °F 42% 29.93 in 10.0 mi WNW 19.6 mph 25.3 mph N/A   Clear
12:55 AM 59.0 °F - 35.6 °F 42% 29.94 in 10.0 mi NW 16.1 mph 24.2 mph N/A   Clear
1:15 AM 59.0 °F - 33.8 °F 39% 29.94 in 10.0 mi NW 17.3 mph 25.3 mph N/A   Clear
1:35 AM 59.0 °F - 32.0 °F 36% 29.95 in 10.0 mi NW 16.1 mph 27.6 mph N/A   Clear
1:55 AM 55.4 °F - 33.8 °F 44% 29.96 in 10.0 mi WNW 9.2 mph 17.3 mph N/A   Clear
2:15 AM 55.4 °F - 33.8 °F 44% 29.96 in 10.0 mi WNW 11.5 mph 17.3 mph N/A   Clear
2:35 AM 55.4 °F - 35.6 °F 47% 29.96 in 10.0 mi WNW 13.8 mph 18.4 mph N/A   Clear
2:55 AM 55.4 °F - 35.6 °F 47% 29.96 in 10.0 mi WNW 13.8 mph 20.7 mph N/A   Clear
3:15 AM 55.4 °F - 35.6 °F 47% 29.96 in 10.0 mi WNW 15.0 mph 20.7 mph N/A   Clear
3:35 AM 55.4 °F - 35.6 °F 47% 29.97 in 10.0 mi WNW 13.8 mph 20.7 mph N/A   Clear
3:55 AM 55.4 °F - 35.6 °F 47% 29.98 in 10.0 mi WNW 16.1 mph 23.0 mph N/A   Clear
4:15 AM 55.4 °F - 35.6 °F 47% 29.99 in 10.0 mi WNW 16.1 mph 20.7 mph N/A   Clear
4:35 AM 55.4 °F - 35.6 °F 47% 29.99 in 10.0 mi WNW 13.8 mph 23.0 mph N/A   Clear
4:55 AM 53.6 °F - 35.6 °F 51% 30.00 in 10.0 mi WNW 11.5 mph 20.7 mph N/A   Clear
5:15 AM 53.6 °F - 35.6 °F 51% 30.00 in 10.0 mi WNW 13.8 mph 18.4 mph N/A   Clear
5:35 AM 53.6 °F - 37.4 °F 54% 30.01 in 10.0 mi WNW 11.5 mph 18.4 mph N/A   Clear
5:55 AM 51.8 °F - 37.4 °F 58% 30.02 in 10.0 mi WNW 11.5 mph 17.3 mph N/A   Clear
6:15 AM 53.6 °F - 37.4 °F 54% 30.02 in 10.0 mi WNW 15.0 mph - N/A   Clear
6:35 AM 53.6 °F - 39.2 °F 58% 30.03 in 10.0 mi WNW 13.8 mph - N/A   Clear
6:55 AM 51.8 °F - 39.2 °F 62% 30.03 in 10.0 mi WNW 13.8 mph - N/A   Clear
7:15 AM 51.8 °F - 39.2 °F 62% 30.04 in 10.0 mi WNW 11.5 mph 19.6 mph N/A   Clear
7:35 AM 53.6 °F - 41.0 °F 62% 30.05 in 10.0 mi WNW 11.5 mph - N/A   Clear
7:55 AM 53.6 °F - 41.0 °F 62% 30.06 in 10.0 mi WNW 11.5 mph 17.3 mph N/A   Clear
8:15 AM 55.4 °F - 41.0 °F 58% 30.07 in 10.0 mi WNW 16.1 mph 20.7 mph N/A   Clear
8:35 AM 55.4 °F - 41.0 °F 58% 30.08 in 10.0 mi NW 15.0 mph 23.0 mph N/A   Clear
8:55 AM 57.2 °F - 41.0 °F 55% 30.09 in 10.0 mi NW 15.0 mph 25.3 mph N/A   Clear
9:15 AM 59.0 °F - 39.2 °F 48% 30.10 in 10.0 mi NW 17.3 mph 23.0 mph N/A   Clear
9:35 AM 59.0 °F - 37.4 °F 45% 30.11 in 10.0 mi NNW 16.1 mph 24.2 mph N/A   Clear
9:55 AM 60.8 °F - 37.4 °F 42% 30.11 in 10.0 mi NW 18.4 mph 21.9 mph N/A   Clear
10:15 AM 60.8 °F - 37.4 °F 42% 30.12 in 10.0 mi NNW 17.3 mph 21.9 mph N/A   Clear
10:35 AM 62.6 °F - 37.4 °F 39% 30.13 in 10.0 mi NNW 13.8 mph 23.0 mph N/A   Clear
10:55 AM 62.6 °F - 37.4 °F 39% 30.13 in 10.0 mi NNW 13.8 mph 20.7 mph N/A   Clear
11:15 AM 62.6 °F - 37.4 °F 39% 30.12 in 10.0 mi NW 13.8 mph 21.9 mph N/A   Clear
11:35 AM 64.4 °F - 37.4 °F 37% 30.12 in 10.0 mi NNW 18.4 mph 23.0 mph N/A   Clear
11:55 AM 64.4 °F - 37.4 °F 37% 30.11 in 10.0 mi NNW 20.7 mph 26.5 mph N/A   Clear
12:15 PM 66.2 °F - 35.6 °F 32% 30.11 in 10.0 mi NW 18.4 mph 26.5 mph N/A   Clear
12:35 PM 68.0 °F - 35.6 °F 30% 30.10 in 10.0 mi NW 13.8 mph 25.3 mph N/A   Clear
12:55 PM 68.0 °F - 35.6 °F 30% 30.10 in 10.0 mi NW 13.8 mph 19.6 mph N/A   Scattered Clouds
1:15 PM 68.0 °F - 35.6 °F 30% 30.10 in 10.0 mi WNW 17.3 mph 26.5 mph N/A   Scattered Clouds
1:35 PM 68.0 °F - 35.6 °F 30% 30.09 in 10.0 mi NNW 18.4 mph 24.2 mph N/A   Clear
1:55 PM 68.0 °F - 35.6 °F 30% 30.09 in 10.0 mi NW 17.3 mph 25.3 mph N/A   Scattered Clouds
2:15 PM 68.0 °F - 35.6 °F 30% 30.08 in 10.0 mi WNW 15.0 mph 25.3 mph N/A   Scattered Clouds
2:35 PM 68.0 °F - 35.6 °F 30% 30.08 in 10.0 mi NW 16.1 mph 23.0 mph N/A   Scattered Clouds
2:55 PM 68.0 °F - 35.6 °F 30% 30.08 in 10.0 mi NW 13.8 mph 26.5 mph N/A   Scattered Clouds
3:15 PM 68.0 °F - 35.6 °F 30% 30.08 in 10.0 mi WNW 12.7 mph 20.7 mph N/A   Scattered Clouds
3:35 PM 68.0 °F - 33.8 °F 28% 30.08 in 10.0 mi NW 20.7 mph - N/A   Scattered Clouds
3:55 PM 68.0 °F - 33.8 °F 28% 30.08 in 10.0 mi NW 15.0 mph 27.6 mph N/A   Scattered Clouds
4:15 PM 64.4 °F - 33.8 °F 32% 30.09 in 10.0 mi NW 12.7 mph 23.0 mph N/A   Scattered Clouds
4:35 PM 64.4 °F - 35.6 °F 34% 30.08 in 10.0 mi NW 15.0 mph 19.6 mph N/A   Clear
4:55 PM 68.0 °F - 35.6 °F 30% 30.08 in 10.0 mi NNW 18.4 mph 24.2 mph N/A   Scattered Clouds
5:15 PM 66.2 °F - 35.6 °F 32% 30.09 in 10.0 mi NNW 17.3 mph 23.0 mph N/A   Scattered Clouds
5:35 PM 64.4 °F - 35.6 °F 34% 30.09 in 10.0 mi NNW 15.0 mph 20.7 mph N/A   Scattered Clouds
5:55 PM 64.4 °F - 32.0 °F 30% 30.10 in 10.0 mi NNW 16.1 mph 23.0 mph N/A   Scattered Clouds
6:15 PM 62.6 °F - 32.0 °F 32% 30.10 in 10.0 mi NW 12.7 mph 20.7 mph N/A   Scattered Clouds
6:35 PM 60.8 °F - 33.8 °F 36% 30.10 in 10.0 mi NNW 9.2 mph - N/A   Clear
6:55 PM 59.0 °F - 33.8 °F 39% 30.11 in 10.0 mi NW 9.2 mph - N/A   Clear
7:15 PM 59.0 °F - 35.6 °F 42% 30.11 in 10.0 mi NNW 8.1 mph - N/A   Clear
7:35 PM 55.4 °F - 35.6 °F 47% 30.11 in 10.0 mi NNW 8.1 mph - N/A   Clear
7:55 PM 51.8 °F - 35.6 °F 54% 30.12 in 10.0 mi NNW 8.1 mph - N/A   Clear
8:15 PM 50.0 °F - 37.4 °F 62% 30.12 in 10.0 mi North 6.9 mph - N/A   Clear
8:35 PM 48.2 °F - 37.4 °F 66% 30.13 in 10.0 mi North 6.9 mph - N/A   Clear
8:55 PM 48.2 °F - 37.4 °F 66% 30.14 in 10.0 mi North 9.2 mph - N/A   Clear
9:15 PM 51.8 °F - 37.4 °F 58% 30.15 in 10.0 mi North 9.2 mph - N/A   Clear
9:35 PM 51.8 °F - 37.4 °F 58% 30.15 in 10.0 mi North 10.4 mph - N/A   Clear
9:55 PM 51.8 °F - 37.4 °F 58% 30.15 in 10.0 mi NNE 11.5 mph - N/A   Clear
10:15 PM 51.8 °F - 37.4 °F 58% 30.16 in 10.0 mi NNE 11.5 mph - N/A   Clear
10:35 PM 51.8 °F - 37.4 °F 58% 30.17 in 10.0 mi NNE 10.4 mph - N/A   Clear
10:55 PM 50.0 °F - 37.4 °F 62% 30.18 in 10.0 mi NNE 5.8 mph - N/A   Clear
11:15 PM 46.4 °F 43.5 °F 35.6 °F 66% 30.18 in 10.0 mi NNE 5.8 mph - N/A   Clear
11:35 PM 44.6 °F 42.2 °F 35.6 °F 71% 30.18 in 10.0 mi NNE 4.6 mph - N/A   Clear
11:55 PM 44.6 °F 40.7 °F 35.6 °F 71% 30.18 in 10.0 mi North 6.9 mph - N/A   Clear